Wind_Speed
51 51 51 51 52 52 53 53 54 54 55 56 56 56 57 57 57 58 59 59 60 61 61 62 63 64 65 66 66 67 68 69 69 70 71 72 73 74 75 76 77 77 78 79 79 80 80 80 81 81 81 81 81 81 81 81 81 81 81 80 80 79 79 78 78 77 77 76 76 75 75 75 74 74 74 74 73 73 73 73 73 73 73 73 72 72
52 52 52 52 52 53 54 54 55 55 56 57 57 57 57 58 58 59 60 60 61 62 63 64 65 65 66 67 68 69 70 70 71 72 73 74 75 76 77 78 79 79 80 80 80 80 81 81 80 80 80 80 79 79 78 78 77 77 76 76 75 75 74 74 74 74 74 74 74 74 74 74 74 74 74 74 74 74 74 75 75 75 75 75 75 74
52 53 53 53 53 54 55 55 56 56 57 57 58 58 58 59 59 60 61 61 62 63 64 65 66 67 68 69 70 71 71 72 73 74 75 76 77 78 79 79 80 80 80 80 80 80 80 79 79 78 77 77 76 75 75 74 74 74 73 73 73 73 73 74 74 74 74 75 75 75 76 76 76 76 76 76 76 76 77 77 77 77 77 77 77 77
53 53 54 54 55 55 56 56 57 57 57 58 58 59 59 60 60 61 62 62 63 64 65 66 67 68 69 71 71 72 73 74 75 76 77 78 79 79 80 80 80 80 79 79 78 78 77 76 76 75 74 74 74 73 73 73 73 73 74 74 74 75 75 75 76 76 77 77 77 78 78 78 78 78 78 78 78 78 78 78 78 78 78 78 78 78
53 54 55 55 56 57 57 57 58 58 58 59 59 59 60 60 61 62 63 64 64 66 67 68 69 70 71 72 73 74 75 76 77 78 79 79 80 80 79 79 79 78 77 76 76 75 74 74 73 73 73 73 73 74 74 75 75 75 76 76 76 77 77 77 77 78 78 78 78 78 79 79 79 79 79 79 79 78 78 78 78 78 78 78 78 78
54 55 56 56 57 57 58 58 58 59 59 60 60 61 61 62 62 63 64 65 66 67 68 69 70 71 72 74 75 76 77 78 78 79 79 79 79 78 78 77 76 75 75 74 73 73 73 73 73 74 74 75 75 76 76 76 77 77 77 77 77 77 77 77 78 78 78 78 78 78 78 79 79 79 79 78 78 78 78 78 78 78 78 78 78 78
55 56 57 57 58 58 58 59 59 60 60 61 62 62 63 63 64 65 65 66 67 68 69 70 71 73 74 75 76 77 78 78 78 78 78 77 76 76 75 74 74 73 73 73 73 74 74 74 75 75 76 76 77 77 77 77 77 77 77 77 77 77 77 78 78 78 78 78 78 78 79 79 79 79 79 79 78 78 78 78 78 78 78 77 77 77
56 57 57 58 58 59 59 60 60 61 61 62 63 63 64 65 66 66 67 68 69 70 71 72 73 74 75 76 77 77 77 77 77 76 75 74 74 73 73 73 73 73 74 74 75 75 76 76 77 77 77 77 78 78 78 78 78 78 78 78 78 78 78 78 78 78 78 78 79 79 79 79 79 79 79 79 79 78 78 78 78 78 77 77 77 77
57 57 58 58 59 59 60 61 62 62 62 63 64 65 65 66 67 68 69 70 71 72 72 74 75 76 77 77 77 77 76 75 74 73 72 72 72 72 72 73 73 74 75 76 77 77 77 78 78 78 78 78 79 79 79 79 79 79 79 79 79 79 79 79 79 79 79 79 79 78 78 78 78 78 78 78 78 78 78 77 77 77 77 77 77 76
57 58 58 59 59 60 61 62 63 63 63 64 65 66 67 68 69 70 70 72 73 74 74 75 76 77 77 77 76 75 74 73 72 72 71 71 72 72 73 74 75 75 76 77 78 78 78 78 78 79 79 79 79 80 80 80 80 80 80 80 80 80 80 80 79 79 79 78 78 78 78 77 77 77 77 77 77 76 76 76 76 76 76 76 76 76
58 58 59 60 60 61 61 62 63 64 65 66 67 68 68 69 70 71 72 73 74 75 76 76 76 76 76 76 75 73 72 71 71 71 71 72 73 74 74 75 76 76 77 77 78 78 78 78 78 79 79 79 79 79 80 80 80 80 80 80 80 80 79 79 79 78 78 78 77 77 76 76 75 75 75 75 75 74 74 74 74 74 74 74 74 75
58 59 60 60 61 62 63 64 64 65 66 67 68 69 70 71 71 72 73 74 75 76 76 76 76 75 74 73 73 72 71 71 71 72 73 74 74 75 75 76 76 77 77 77 78 78 78 78 78 78 78 78 78 78 78 78 78 78 78 78 78 78 78 78 77 77 76 76 76 75 74 74 73 73 72 72 72 72 72 72 72 72 73 73 73 73
59 60 60 61 62 63 64 65 66 67 68 68 69 70 72 72 73 73 74 75 75 75 75 74 73 73 72 72 71 71 71 71 72 72 74 75 75 76 76 76 76 77 77 77 77 77 77 77 77 77 77 77 77 77 77 76 76 76 76 76 76 76 75 75 75 75 74 74 74 73 72 72 71 71 71 70 70 70 70 71 71 71 71 72 72 72
60 61 61 62 63 64 65 66 67 68 69 70 70 71 72 73 74 74 75 75 75 74 72 71 71 71 71 71 72 72 72 72 72 73 74 75 76 76 76 76 76 76 76 76 76 76 76 75 75 76 76 75 75 75 75 75 74 74 74 73 73 73 73 73 72 72 72 72 71 71 71 70 70 70 69 69 69 70 70 70 70 71 71 71 72 72
61 61 62 63 65 66 66 67 68 69 70 71 71 72 73 74 74 74 74 73 73 72 70 69 69 70 71 72 73 73 73 73 73 73 74 75 75 76 75 75 75 75 75 75 75 75 75 75 74 74 74 74 74 73 73 73 72 72 72 71 71 71 71 70 70 70 70 70 70 70 70 70 70 70 70 70 70 70 70 71 71 72 72 72 73 73
62 62 63 64 66 67 68 68 69 70 71 71 72 73 73 74 74 73 72 71 70 69 69 68 69 70 72 73 74 74 74 73 73 73 73 74 75 75 74 74 74 74 74 74 74 74 74 74 73 73 73 73 72 72 72 71 71 71 70 70 70 69 69 69 69 69 69 69 70 70 70 70 71 71 71 71 72 72 72 72 73 73 74 74 74 75
63 64 64 66 67 68 69 69 70 70 71 72 73 73 73 72 72 71 70 69 68 68 68 69 70 71 72 74 75 75 74 73 73 73 72 73 74 75 74 73 73 73 73 73 73 73 72 72 72 71 71 71 71 70 70 70 70 70 69 69 69 69 69 69 69 69 70 70 70 71 71 72 72 72 73 73 74 74 74 75 75 76 76 76 77 77
64 65 65 66 67 68 69 70 70 71 72 72 72 72 71 70 69 68 68 68 68 69 69 70 71 72 73 73 74 74 74 73 72 72 72 72 73 73 73 72 71 71 71 71 71 71 70 70 70 69 69 69 69 69 69 69 69 69 69 69 69 69 70 70 70 70 71 71 72 72 73 73 74 74 75 75 76 76 77 77 77 78 78 79 79 79
65 66 66 67 68 69 70 70 71 71 71 71 70 69 68 68 68 67 68 68 69 70 70 71 72 72 73 73 73 74 74 72 72 71 71 70 71 72 72 70 70 70 69 69 69 69 68 68 68 67 67 67 67 68 68 68 69 69 69 70 70 70 71 71 71 72 72 73 73 74 74 75 75 76 77 77 78 78 79 79 79 80 80 80 81 81
66 67 67 67 68 69 70 70 70 70 69 68 67 67 66 67 67 68 68 69 70 70 71 71 72 72 72 72 72 73 73 72 71 70 70 69 69 70 69 68 67 67 67 67 67 66 66 66 66 66 66 66 67 67 68 68 69 69 70 71 71 72 72 72 73 73 74 74 75 75 76 76 77 77 78 78 79 79 80 80 80 80 80 80 80 80
66 67 67 68 68 69 69 69 69 68 67 66 65 65 66 66 67 68 69 70 70 70 70 71 71 71 71 70 71 72 72 71 70 69 68 67 67 67 67 66 65 65 65 65 65 64 63 63 64 64 65 66 66 67 68 69 70 70 71 72 72 73 73 74 74 75 75 76 76 77 77 77 78 78 78 78 79 79 79 79 79 79 78 78 78 78
66 67 68 68 68 68 67 67 66 65 64 64 64 65 66 67 68 69 69 69 69 70 69 69 69 69 70 69 70 71 71 69 68 67 66 65 65 65 65 64 63 63 63 63 63 62 62 62 63 64 65 66 67 68 69 70 71 71 72 73 73 74 74 75 76 76 76 77 77 77 78 78 77 77 77 77 77 76 76 75 75 74 74 73 73 72
66 67 67 67 66 65 65 64 64 63 63 64 65 66 67 67 68 68 69 69 69 68 68 68 68 69 69 68 68 68 68 68 67 66 64 62 62 63 63 62 61 61 61 61 61 61 62 62 63 64 65 67 68 69 70 71 72 72 73 74 74 75 76 76 77 77 77 77 77 77 77 76 75 75 74 73 72 72 71 70 69 68 67 67 66 66
66 66 65 65 64 63 62 62 63 63 64 65 65 66 67 68 68 68 68 68 68 68 67 67 67 66 66 65 65 65 66 66 65 64 62 61 60 61 61 60 59 60 60 60 60 60 61 63 64 65 66 67 68 70 71 72 72 73 74 75 75 76 76 77 77 77 77 76 76 75 74 73 72 70 69 68 66 65 64 63 62 61 60 60 59 59
64 63 62 62 61 61 62 62 63 64 64 65 66 67 67 68 68 68 68 68 67 66 65 65 63 63 63 63 62 63 64 63 62 61 60 59 59 59 59 59 58 59 59 60 60 61 62 63 65 66 67 68 69 70 71 72 73 74 75 75 76 76 77 77 76 76 75 74 72 71 69 68 66 64 63 61 59 58 57 55 54 54 53 53 52 52
61 60 60 60 61 61 62 63 63 64 65 65 66 66 67 67 67 66 66 65 64 63 63 62 61 61 61 60 60 60 61 61 60 59 58 57 57 58 58 58 58 58 59 60 60 61 62 64 65 66 67 69 70 71 72 73 74 75 75 76 76 76 76 75 74 73 71 69 68 65 63 61 59 57 56 54 52 51 50 49 48 47 47 47 46 46
59 59 59 60 61 62 62 63 64 64 65 65 65 66 66 65 64 63 63 62 62 61 60 60 59 59 59 58 57 58 59 59 58 57 57 56 56 57 58 58 58 58 59 60 61 61 63 64 66 67 68 69 70 71 72 73 74 75 75 75 75 74 74 72 71 69 67 64 62 60 57 55 53 51 49 47 46 45 44 43 42 42 42 41 41 41
58 59 60 60 61 62 62 63 64 64 64 65 65 65 64 63 62 61 61 61 60 59 58 58 57 56 56 55 55 56 57 57 57 56 56 55 56 56 57 58 58 59 59 60 61 62 63 65 66 67 68 69 70 72 73 73 74 74 74 73 73 72 70 69 67 64 62 59 56 54 52 49 47 45 44 42 41 40 39 38 38 37 37 36 36 36
58 59 60 60 61 62 62 63 63 63 64 64 63 63 63 62 60 59 59 59 58 57 57 56 55 55 54 54 54 55 56 56 56 56 55 55 56 57 57 58 59 60 60 60 61 62 63 65 66 67 68 69 71 72 72 73 73 72 72 71 69 68 66 64 62 60 57 55 52 50 48 46 44 42 41 39 38 37 36 36 35 34 34 34 33 34
58 59 59 60 61 61 61 62 62 62 62 62 62 61 61 60 59 58 58 58 56 55 55 54 54 53 53 53 53 54 55 56 56 56 55 55 56 57 57 58 59 60 61 61 61 62 63 65 66 67 68 69 70 71 71 71 71 69 68 67 65 63 62 59 57 55 53 51 50 48 46 44 43 41 40 39 38 37 36 36 35 35 34 34 34 34
58 58 59 60 60 60 61 61 61 61 61 60 60 59 59 58 57 57 56 55 55 54 53 53 52 52 52 52 52 53 55 56 56 56 55 55 56 57 57 58 60 61 61 61 62 62 63 65 66 68 68 69 70 70 69 68 67 65 64 62 60 58 56 55 53 52 50 49 48 46 45 44 43 42 41 40 39 39 38 38 37 37 36 36 36 36
58 58 58 59 59 60 60 60 60 59 59 58 57 57 56 55 55 54 54 53 52 52 51 51 51 51 52 52 52 53 54 56 56 56 55 56 56 57 58 58 59 61 62 63 63 63 64 65 66 67 68 68 68 67 67 65 63 61 59 57 55 53 52 50 49 48 47 47 46 45 45 44 44 43 42 42 41 41 40 40 40 40 39 39 39 39
57 57 58 58 58 58 58 58 58 57 57 56 55 54 54 53 52 52 51 50 50 50 50 50 50 51 51 52 52 53 54 55 56 56 56 56 56 57 58 59 60 61 62 63 64 65 65 66 67 67 67 66 65 64 62 61 58 56 54 52 51 49 48 47 46 46 45 45 45 45 45 45 45 45 44 44 43 43 42 42 42 42 42 42 42 42
56 56 56 57 57 57 56 56 55 55 54 53 53 52 51 50 50 49 48 48 48 48 48 49 49 50 51 51 52 53 54 55 56 56 56 56 57 57 58 59 60 61 63 64 65 66 66 67 67 66 65 64 62 60 58 56 54 52 50 48 47 46 46 45 44 44 44 44 44 45 45 46 46 46 46 46 45 45 44 44 44 44 45 45 45 45
55 55 55 55 55 55 54 54 53 53 52 51 50 49 49 48 47 46 46 46 47 47 47 48 49 50 50 51 52 53 54 55 56 56 57 57 57 58 59 60 61 62 63 65 66 66 66 66 66 64 62 60 59 56 54 51 49 48 47 45 44 44 44 44 44 44 44 44 44 45 45 46 46 47 47 47 46 46 45 45 46 46 47 47 48 48
54 53 53 53 53 52 52 51 51 50 49 48 48 47 46 45 45 45 45 45 46 46 47 48 49 50 50 51 52 52 54 55 56 57 57 57 58 59 60 61 62 63 64 66 66 66 66 65 64 62 59 56 54 52 50 48 46 45 44 44 44 44 44 44 44 45 45 45 45 45 45 46 46 46 46 46 46 45 45 46 46 47 47 48 49 49
52 51 51 51 50 49 49 48 48 47 46 46 45 44 44 43 43 44 44 44 45 46 47 48 49 50 50 51 52 52 53 55 56 57 57 58 59 60 61 62 64 65 65 66 66 66 65 63 61 58 55 52 49 48 46 45 44 43 42 43 43 44 45 45 45 45 46 45 45 45 45 45 44 44 44 43 43 43 44 44 45 46 47 47 48 48
50 49 49 48 47 47 46 45 45 44 44 43 43 42 42 42 42 42 43 44 44 45 46 47 48 49 51 51 52 53 54 55 56 57 58 59 60 61 62 64 65 66 66 66 65 64 62 60 57 54 51 48 46 44 43 42 42 42 42 42 43 44 45 45 46 46 46 46 45 45 44 43 42 42 41 40 40 40 41 42 43 44 45 46 46 47
47 47 46 45 45 44 43 43 42 42 41 41 40 40 40 41 41 42 42 43 44 45 46 47 48 49 50 51 52 53 54 55 56 58 59 60 62 63 64 64 65 65 65 64 62 60 58 55 52 49 46 44 43 41 40 40 40 41 41 42 42 43 44 45 46 46 46 45 44 43 42 41 40 39 38 37 37 38 38 39 40 41 42 43 44 44
45 44 43 43 42 41 41 40 40 39 39 39 39 39 39 40 40 41 42 43 44 45 45 46 47 49 50 51 52 53 55 56 57 59 60 62 63 64 64 64 63 62 61 59 57 55 52 49 47 45 43 41 39 38 38 38 39 40 41 41 42 42 43 44 45 45 44 43 42 41 39 38 36 35 35 35 35 35 36 37 38 39 39 41 41 42
42 41 41 40 40 39 39 38 38 37 37 37 38 38 38 39 40 41 42 43 44 44 45 46 47 48 50 51 52 54 55 57 59 60 61 62 63 63 62 61 59 57 55 53 51 48 46 44 43 41 40 39 38 37 36 37 38 39 40 41 41 41 41 42 42 42 42 40 39 37 36 34 33 32 32 32 33 34 35 36 37 38 39 39 40 41
40 39 38 38 37 37 37 36 36 36 36 37 37 37 38 38 39 40 41 42 43 44 44 45 46 48 49 51 53 54 56 58 59 61 61 61 60 59 57 55 53 51 49 47 45 43 41 40 39 39 38 37 37 36 36 36 37 38 39 40 40 40 39 39 39 39 38 37 36 34 33 33 32 32 32 33 34 35 36 37 39 40 41 42 43 43
37 37 36 36 35 35 35 35 35 35 36 36 36 37 37 38 38 39 40 41 42 43 44 45 46 47 49 50 53 55 57 58 59 59 58 56 54 52 50 48 46 45 43 42 41 40 39 38 38 37 37 36 36 35 35 35 35 36 37 38 38 38 37 36 35 35 35 34 34 34 33 33 34 34 35 36 37 39 40 41 42 44 45 46 46 46
35 35 34 34 34 34 34 34 34 35 35 35 36 36 37 37 38 39 40 40 41 42 43 44 45 47 48 50 52 54 56 56 56 54 52 50 48 46 45 43 42 42 41 40 39 39 38 38 37 37 36 36 35 35 34 34 34 34 35 35 36 35 35 34 34 34 34 34 34 35 36 37 38 38 39 40 41 42 43 44 45 45 46 47 47 48
33 33 33 33 33 33 33 33 34 34 34 35 35 36 36 37 38 38 39 40 41 42 43 44 45 47 48 50 52 52 53 52 50 48 46 44 43 42 41 41 41 41 41 40 40 39 39 38 38 37 37 36 35 35 34 34 34 34 34 34 35 35 35 35 35 36 36 36 37 38 40 41 42 42 43 43 43 43 43 44 44 44 45 45 46 46
32 32 32 32 32 32 32 33 33 33 34 34 35 35 36 37 37 38 39 39 40 41 42 43 45 46 48 50 50 50 48 46 44 42 41 40 40 40 40 41 41 41 42 42 41 41 40 40 39 39 38 38 37 36 36 36 36 36 36 36 36 37 37 37 38 39 40 40 41 41 42 43 44 44 43 43 42 42 41 41 41 41 42 42 43 44
31 31 31 31 31 31 31 32 32 33 33 34 34 35 35 36 37 37 38 39 39 40 41 43 45 46 48 48 48 46 44 41 39 38 37 38 38 39 40 41 42 43 43 43 43 42 42 41 41 41 40 40 39 39 38 38 39 39 39 38 39 39 39 40 40 41 42 42 43 43 43 43 43 43 42 41 39 38 37 37 37 38 39 40 41 42
29 30 30 30 30 30 31 31 31 32 33 33 34 34 35 35 36 36 37 38 38 39 41 42 44 46 46 46 45 43 40 38 36 35 36 36 38 39 41 42 43 44 44 44 43 43 42 42 41 41 41 41 41 40 40 40 40 40 40 40 40 41 41 41 41 42 42 42 42 42 42 42 41 40 38 37 35 34 33 34 35 36 38 39 40 40
28 28 29 29 29 30 30 30 31 31 32 33 33 34 34 35 35 36 36 37 38 38 40 42 43 44 45 44 42 40 38 36 35 35 35 36 38 40 42 43 44 44 44 44 43 43 42 41 40 40 40 41 41 41 40 40 40 41 41 41 41 41 41 41 40 40 41 40 40 39 39 38 37 36 35 33 32 31 31 32 34 35 37 39 40 40
27 28 28 28 28 29 29 30 30 31 31 32 32 33 33 34 35 35 35 36 37 38 39 41 43 43 43 42 40 38 36 35 34 35 36 37 39 41 42 43 44 44 44 43 42 42 41 41 40 39 39 40 40 41 41 40 40 40 40 40 40 40 40 40 39 38 38 37 37 36 35 34 33 32 32 31 31 31 32 33 34 36 38 40 40 41
27 27 27 27 28 28 29 29 30 30 31 31 32 32 33 33 34 34 35 35 36 37 39 41 42 42 42 41 39 37 36 35 35 35 37 38 40 41 42 43 43 43 43 43 42 42 41 41 39 38 38 39 40 41 41 41 41 41 40 40 40 40 40 39 38 37 36 35 34 33 32 31 31 31 31 32 33 33 34 35 36 38 39 41 41 42
Wind_Direction
288 289 290 290 291 291 292 292 292 292 292 292 292 292 292 292 292 291 291 290 290 289 289 288 288 287 287 287 287 287 287 287 287 287 287 287 287 287 287 287 287 286 286 286 285 285 285 284 284 283 283 283 282 282 282 282 282 282 282 281 281 281 281 281 281 281 281 281 281 281 281 281 280 280 280 280 280 279 279 279 279 279 279 278 278 277
289 289 290 290 291 291 291 292 292 292 292 292 293 293 292 292 292 291 291 290 290 290 289 289 288 288 288 288 287 287 287 288 288 288 288 288 288 288 288 288 287 287 287 287 286 286 285 285 285 284 284 284 284 283 283 283 283 283 283 283 283 283 283 283 282 282 282 282 282 281 281 281 281 280 280 280 279 279 279 278 278 278 278 277 277 277
289 290 290 290 291 291 291 291 292 292 292 292 292 293 292 292 292 291 291 290 290 290 289 289 289 288 288 288 288 288 288 288 288 288 288 288 288 288 288 288 288 288 287 287 287 286 286 286 285 285 285 285 285 285 284 284 284 284 284 284 284 283 283 283 283 283 282 282 282 281 281 281 280 280 280 279 279 279 278 278 278 277 277 277 276 276
289 289 290 290 291 291 291 291 292 292 292 292 292 292 292 292 292 291 291 291 290 290 289 289 289 289 289 289 289 289 289 289 289 289 289 289 289 289 288 288 288 288 287 287 287 286 286 286 286 286 286 285 285 285 285 285 285 284 284 284 284 283 283 283 283 283 282 282 282 281 281 281 281 280 280 279 279 279 278 278 277 277 276 276 276 275
289 289 290 290 290 291 291 292 292 292 292 292 292 292 292 292 291 291 291 291 290 290 290 289 289 289 289 289 289 289 289 289 289 289 289 289 289 289 289 288 288 288 287 287 287 287 286 286 286 286 286 286 286 285 285 285 285 284 284 284 284 284 283 283 283 283 283 282 282 282 282 281 281 281 280 280 280 279 279 278 278 277 276 276 275 275
289 289 290 290 290 291 291 291 291 291 292 292 292 292 291 291 291 291 291 290 290 289 289 289 289 289 289 289 289 289 289 289 289 289 289 289 289 289 289 288 288 288 287 287 287 287 287 287 286 286 286 286 286 286 285 285 285 285 285 285 284 284 284 284 284 284 284 284 283 283 283 283 282 282 281 281 280 280 279 279 278 277 277 276 275 275
289 289 290 291 291 291 291 291 291 291 291 291 292 292 291 291 291 290 290 289 289 289 289 289 289 289 289 289 289 289 289 289 289 289 289 289 289 289 288 288 288 288 288 288 288 287 287 287 287 287 287 287 287 287 286 286 286 286 286 286 286 286 286 286 285 285 285 285 285 284 284 284 283 283 282 282 281 281 280 279 279 278 277 276 276 275
289 290 290 290 291 291 291 291 291 291 291 291 291 291 291 291 290 290 289 289 289 288 288 289 289 289 289 289 289 290 290 289 289 289 289 289 288 288 288 288 288 289 289 289 289 289 289 289 289 289 289 288 288 288 288 288 288 288 288 288 287 287 287 287 287 286 286 286 286 285 285 284 284 283 283 282 282 281 280 280 279 278 277 276 275 275
289 290 290 290 290 290 290 291 291 291 291 291 290 290 290 290 290 290 289 289 289 289 289 290 290 290 290 290 290 290 290 290 289 289 289 289 289 289 289 289 289 290 290 290 291 291 291 291 291 291 291 290 290 290 290 290 290 290 289 289 289 289 288 288 288 287 287 286 286 286 285 285 284 284 283 283 282 281 281 280 279 278 277 276 275 274
289 289 289 290 290 290 290 290 290 290 290 290 290 290 289 289 289 290 290 290 290 290 290 291 291 291 291 291 291 290 290 290 290 290 289 289 290 290 290 291 291 292 292 292 292 293 293 293 293 293 293 292 292 292 292 292 291 291 291 290 290 290 289 289 288 288 287 287 286 286 285 285 284 284 283 283 282 281 281 280 279 278 277 276 276 275
289 289 289 289 290 290 289 289 290 290 290 290 290 290 290 289 290 290 290 290 291 291 291 291 291 291 291 291 291 290 290 290 290 290 291 291 291 292 292 292 293 293 293 294 294 294 294 294 294 294 294 294 294 293 293 293 292 292 292 291 291 290 290 289 289 288 288 287 287 286 286 285 285 284 284 283 282 282 281 280 279 279 278 277 276 275
288 288 289 289 289 289 289 289 289 290 289 289 289 290 290 290 290 290 291 291 291 292 292 292 292 291 291 291 290 290 290 291 291 291 292 293 293 293 294 294 294 295 295 295 295 295 295 295 295 295 295 294 294 294 293 293 293 292 292 292 291 291 290 290 290 289 289 288 287 287 286 286 285 284 284 283 283 282 281 280 280 279 278 277 276 275
288 288 288 289 289 289 289 289 289 289 289 289 289 289 290 290 291 291 291 291 292 292 292 292 292 291 291 291 290 291 291 291 292 293 293 294 294 294 295 295 295 295 296 296 296 295 295 295 295 295 294 294 294 293 293 293 293 292 292 292 291 291 291 290 290 290 289 289 288 287 287 286 286 285 284 283 283 282 281 281 280 279 278 277 277 276
287 288 288 288 288 288 288 288 288 288 289 289 289 290 290 291 291 291 292 292 292 292 292 291 291 291 291 291 291 291 292 292 293 294 294 295 295 295 295 296 296 296 296 296 295 295 295 295 294 294 294 294 293 293 293 293 292 292 292 292 291 291 291 291 290 290 290 289 289 288 287 287 286 285 284 284 283 282 281 281 280 279 278 278 277 276
287 287 287 287 287 288 288 288 288 289 289 290 290 290 291 291 291 292 292 292 292 291 291 291 291 291 291 292 292 292 293 294 294 295 295 295 295 296 296 296 296 296 296 295 295 295 294 294 294 294 294 293 293 293 293 293 292 292 292 292 292 291 291 291 290 290 290 290 289 289 288 287 287 286 285 284 283 282 281 281 280 279 278 277 276 276
286 286 286 286 287 287 288 288 289 289 290 290 291 291 291 292 292 292 292 291 291 291 291 291 291 292 292 293 293 294 294 295 295 295 296 296 296 296 296 296 296 296 295 295 295 294 294 294 294 294 294 294 293 293 293 293 293 293 292 292 292 292 292 291 291 291 290 290 290 289 289 288 287 286 285 284 283 283 282 281 280 279 278 277 276 275
286 286 286 287 287 288 288 289 289 290 290 291 291 291 292 292 292 291 291 291 291 291 291 292 292 293 293 294 294 294 295 295 296 296 296 296 296 296 296 296 296 295 295 295 295 295 295 295 295 294 294 294 294 294 294 294 294 293 293 293 293 293 292 292 292 292 291 291 290 290 289 288 288 287 286 285 284 283 282 281 280 279 278 277 276 275
286 286 286 287 287 288 289 289 290 290 291 291 291 292 292 291 291 291 291 291 291 292 292 293 293 294 294 295 295 295 295 296 296 296 296 296 296 296 296 296 296 295 295 295 295 295 295 295 295 295 295 295 295 295 295 295 295 294 294 294 294 294 293 293 293 293 292 292 291 291 290 289 289 288 287 286 285 284 283 282 281 280 278 277 276 275
286 286 287 287 288 289 289 290 290 291 291 291 291 291 291 291 291 291 292 292 292 293 293 294 294 295 295 295 295 295 296 296 296 296 296 296 296 296 296 296 296 296 296 296 296 296 296 296 296 296 296 296 296 296 296 296 296 295 295 295 295 295 294 294 294 293 293 292 292 291 291 290 290 289 288 287 286 285 284 283 281 280 279 277 276 274
286 287 287 288 289 289 290 290 290 291 291 291 291 291 291 291 292 292 292 293 294 294 294 295 295 295 295 296 295 295 296 296 296 296 296 296 296 296 296 296 296 297 297 296 297 297 297 297 297 297 297 297 297 297 297 296 296 296 296 296 296 296 295 295 295 294 294 293 293 293 292 291 291 290 289 288 287 286 284 283 282 280 279 277 276 274
287 287 288 288 289 290 290 290 291 291 291 291 291 291 291 292 292 293 293 294 295 295 295 296 296 296 296 296 296 296 296 296 296 296 297 297 297 297 297 297 297 297 297 297 297 298 298 298 298 298 298 297 297 297 297 297 297 297 297 297 297 296 296 296 296 295 295 295 295 294 294 293 292 291 290 289 288 286 285 283 282 280 279 277 276 274
287 288 289 289 290 290 290 290 291 291 291 291 291 292 292 293 294 294 294 295 295 296 296 296 296 296 296 296 296 296 296 297 297 297 297 298 297 297 297 298 298 298 298 298 298 299 299 299 298 298 298 298 298 298 298 298 298 298 298 298 297 297 297 297 297 297 297 297 297 296 296 295 294 293 291 290 288 287 285 284 282 281 279 278 276 275
288 289 289 290 290 290 290 290 291 291 291 292 292 293 293 294 294 295 295 295 296 296 296 297 297 297 297 297 297 297 297 297 297 298 298 298 298 298 298 299 299 299 299 299 299 299 300 299 299 299 299 299 299 299 299 299 299 299 299 299 299 299 299 299 299 299 299 299 299 298 298 297 295 294 292 291 289 288 286 285 283 282 280 279 277 276
289 289 290 290 290 290 290 291 291 292 292 293 293 294 294 295 295 295 296 296 296 296 297 297 297 297 297 298 298 298 297 297 298 298 299 299 299 299 299 299 300 300 300 300 300 300 300 300 300 300 300 300 300 300 300 300 300 300 300 300 300 301 301 301 302 302 302 302 301 300 299 298 297 295 293 292 290 289 287 286 284 283 281 280 278 277
289 290 290 290 290 291 291 291 292 293 293 294 294 295 295 295 296 296 296 296 297 297 297 297 298 298 298 298 298 298 298 298 299 299 300 300 300 300 300 300 301 301 301 301 301 301 301 301 301 301 301 301 301 301 301 301 301 302 302 302 303 303 303 304 304 304 304 304 303 302 300 299 297 296 295 293 292 290 289 288 286 285 283 281 280 278
289 290 290 290 291 291 292 292 293 293 294 294 295 295 295 296 296 296 296 297 297 297 297 298 298 298 298 298 299 299 299 299 300 300 301 301 302 301 301 301 302 302 302 302 302 302 302 302 302 302 302 302 302 302 302 303 303 303 304 304 305 305 306 306 306 306 306 305 304 303 301 300 299 297 296 295 293 292 291 290 288 287 285 284 282 281
290 290 290 291 292 292 293 293 294 294 294 295 295 295 295 296 296 296 297 297 297 297 298 298 298 298 299 299 299 300 300 300 301 301 302 303 303 303 302 302 302 302 302 303 303 303 303 303 303 303 303 303 303 304 304 304 305 306 306 307 307 308 308 308 308 308 307 306 305 303 302 301 300 299 298 297 296 295 294 293 292 291 289 288 286 284
290 291 291 292 292 293 293 294 294 294 295 295 295 295 296 296 296 297 297 297 297 298 298 298 299 299 300 300 301 301 301 301 302 303 304 304 304 303 303 303 303 303 303 303 303 304 304 304 304 304 304 304 305 305 306 306 307 308 308 309 309 310 310 310 309 309 308 307 306 304 303 302 301 300 300 299 299 298 298 297 296 295 294 293 291 289
291 291 292 292 293 293 294 294 295 295 295 295 295 296 296 296 297 297 297 298 298 299 299 300 300 301 301 302 302 302 302 302 303 304 305 305 305 304 304 304 304 304 304 304 304 304 304 304 305 305 305 305 306 307 307 308 309 309 310 311 311 311 311 311 311 310 309 308 307 306 305 304 303 303 302 302 302 301 301 301 300 300 299 298 296 295
292 292 293 293 293 294 294 295 295 295 295 296 296 296 296 297 297 298 298 299 299 300 301 301 302 302 303 303 304 304 303 304 304 305 306 306 305 305 305 305 305 304 304 304 305 305 305 305 305 306 306 307 307 308 309 309 310 311 312 312 313 313 313 313 312 312 311 310 309 309 308 307 306 305 305 305 304 304 304 304 304 303 303 302 301 299
293 293 293 294 294 294 295 295 295 295 296 296 296 297 297 298 298 299 300 300 301 302 303 303 304 304 305 305 305 305 305 305 305 306 307 307 306 306 306 306 305 305 305 305 305 305 305 305 306 306 307 308 308 309 310 310 311 312 313 313 314 314 314 314 314 314 313 313 312 311 310 309 308 308 307 307 307 307 306 306 306 305 305 304 303 301
293 294 294 294 294 295 295 295 295 296 296 297 297 298 298 299 300 301 302 303 303 304 305 305 306 306 306 307 307 306 306 306 306 307 307 307 307 306 306 306 306 306 306 306 306 306 306 306 306 307 308 308 309 310 310 311 312 313 313 314 314 315 315 316 316 315 314 313 312 311 310 309 308 307 307 307 306 306 306 306 305 305 305 304 303 302
294 294 294 294 295 295 295 296 296 296 297 297 298 299 300 301 302 303 304 305 306 306 306 307 307 307 307 307 307 307 307 306 307 307 307 307 307 307 307 307 306 306 306 307 307 307 307 307 307 307 308 308 309 310 311 311 312 313 313 314 315 315 316 316 316 315 314 312 310 309 307 306 305 304 303 303 303 303 303 303 303 303 302 302 302 301
294 294 294 295 295 295 296 296 297 297 298 299 300 301 302 303 304 305 306 307 307 307 308 308 308 308 308 308 308 308 307 307 307 307 308 308 307 307 307 307 307 307 307 307 307 307 307 307 308 308 308 309 309 310 310 311 312 312 313 313 314 315 316 316 315 314 313 311 308 306 304 303 301 300 300 299 299 299 299 299 299 300 300 300 300 300
294 294 295 295 296 296 296 297 298 299 300 301 302 303 304 306 306 307 307 308 308 309 309 309 309 309 309 309 308 308 308 308 308 308 308 308 308 308 308 308 308 308 308 307 307 307 308 308 308 308 308 309 309 309 309 310 311 311 311 312 313 314 314 315 314 313 312 310 308 306 304 303 301 299 298 297 297 297 297 297 297 297 297 298 298 298
294 295 295 296 296 297 298 299 300 301 302 303 304 305 306 307 308 308 308 309 309 310 310 310 310 310 309 309 309 309 309 309 309 309 309 309 309 309 309 309 309 309 308 308 308 308 308 307 307 308 308 308 308 308 308 309 309 310 310 310 312 313 313 314 314 313 312 311 309 308 306 304 303 301 299 298 297 297 296 296 296 296 296 296 297 297
295 296 296 297 298 299 300 301 302 303 304 305 306 307 308 308 308 309 309 310 310 310 310 311 310 310 310 310 310 310 310 310 310 310 310 310 310 310 310 310 310 309 309 309 308 308 308 307 307 307 307 307 307 307 307 307 307 307 307 308 310 311 312 313 313 313 312 311 309 309 307 306 305 304 302 301 299 298 297 296 296 296 296 296 296 296
296 297 298 299 299 301 302 303 304 305 306 306 307 308 308 309 309 309 310 310 311 311 311 311 311 311 311 311 311 311 311 311 311 311 311 311 312 312 312 311 311 310 310 309 309 308 308 308 308 307 307 307 307 307 306 306 306 305 306 307 309 310 311 312 312 312 311 310 309 309 308 307 307 306 305 303 302 301 299 298 297 297 297 296 296 296
298 298 299 300 301 302 303 304 305 306 307 307 308 308 309 309 310 310 311 311 311 312 312 312 312 312 312 312 313 313 313 313 313 313 313 313 313 313 313 313 312 312 311 311 310 310 310 310 309 309 308 307 307 306 306 305 304 304 305 306 308 309 310 311 311 310 310 309 309 309 309 308 308 308 307 306 304 303 301 300 299 298 298 297 296 295
299 299 300 301 302 303 304 305 306 306 307 307 308 308 309 310 310 311 312 312 312 313 313 313 314 314 314 314 314 314 315 315 315 315 315 315 315 315 315 315 314 314 313 313 313 313 313 313 312 311 310 310 309 308 307 305 304 304 305 306 307 308 309 310 310 309 309 309 310 310 310 310 310 310 309 308 306 305 303 302 301 299 298 298 297 296
300 300 301 302 303 304 305 306 306 307 307 307 308 309 310 311 311 312 313 313 314 314 314 315 315 315 316 316 316 316 317 317 317 318 318 318 318 318 318 317 317 317 317 318 318 318 318 318 317 316 315 313 312 310 309 307 306 305 306 307 308 309 309 310 310 309 310 311 312 312 313 313 313 312 311 310 309 307 306 304 303 301 300 298 298 297
300 301 302 303 304 305 305 306 306 307 307 308 309 310 311 312 312 313 313 314 315 315 316 316 317 317 318 318 319 319 320 320 320 321 321 321 321 322 322 323 323 324 324 325 325 326 325 324 323 321 319 317 316 314 312 310 309 308 308 309 310 311 311 312 312 312 313 314 315 316 316 316 316 315 314 312 311 309 308 306 305 304 302 301 299 298
301 302 303 304 304 305 305 306 306 307 308 309 310 311 312 313 313 314 314 315 316 317 318 318 319 320 320 321 322 322 323 323 324 324 325 326 327 328 329 331 332 334 334 335 335 334 333 332 330 327 325 323 321 318 317 315 313 312 312 312 313 314 315 316 317 317 317 318 319 319 318 318 317 316 315 314 312 311 310 309 308 306 305 303 302 300
301 302 303 304 305 305 306 306 307 308 309 310 311 312 313 313 314 315 316 317 318 319 319 320 321 322 323 324 325 326 326 327 328 329 331 332 334 336 339 341 343 344 345 345 344 343 342 340 338 336 333 331 328 326 324 322 320 319 318 318 318 319 320 322 322 322 321 321 321 320 319 318 317 317 316 315 314 313 312 311 310 309 308 306 305 303
302 302 303 304 305 305 306 307 308 309 310 311 312 313 314 315 315 316 318 319 320 321 322 323 324 325 326 327 328 329 330 331 333 335 338 340 343 346 348 350 351 352 351 351 350 349 348 346 344 343 340 338 336 334 332 330 328 326 325 324 324 324 325 325 325 324 323 322 321 320 319 318 318 317 317 316 316 315 315 314 313 312 310 309 307 304
302 303 304 305 305 306 307 308 309 310 311 312 313 314 315 316 317 318 320 321 322 323 324 326 327 328 329 330 332 333 335 336 339 341 345 348 350 352 353 354 354 353 352 352 351 350 349 348 346 345 343 341 339 338 336 334 332 330 329 328 327 327 326 326 325 323 322 322 321 320 320 319 319 318 318 318 318 317 317 317 316 314 313 311 308 306
302 304 304 305 306 307 308 309 310 311 312 313 314 315 316 317 319 320 322 323 325 326 327 328 330 332 333 334 335 337 339 341 344 346 349 351 353 354 353 353 352 351 350 349 348 347 346 345 344 343 341 339 338 337 335 333 331 330 330 329 328 327 326 325 323 322 322 321 321 321 320 320 319 319 319 319 319 319 319 318 318 317 315 313 311 309
303 304 305 306 307 308 309 310 311 312 313 314 315 316 317 319 321 322 324 325 326 328 329 331 333 335 336 338 339 340 342 344 346 348 350 351 352 352 351 350 349 348 347 346 345 345 344 343 342 340 339 337 336 335 334 332 330 329 328 328 327 326 325 324 323 322 321 321 321 320 320 320 319 319 319 319 319 319 319 319 319 318 317 316 315 315
304 305 306 307 308 309 310 311 312 313 313 314 315 317 319 320 322 324 325 326 328 329 331 334 336 338 340 341 341 342 343 345 346 348 349 349 349 349 348 348 347 346 346 345 344 344 343 342 341 339 337 336 335 334 333 331 329 328 327 327 327 326 325 324 323 322 321 321 321 320 320 319 318 318 317 317 318 318 319 320 319 319 318 317 317 318
304 305 306 308 309 310 311 312 312 313 314 315 316 318 320 322 324 325 326 327 329 331 333 336 338 340 342 342 343 343 343 343 344 345 346 346 347 347 346 346 346 345 345 345 345 344 344 343 342 340 338 336 334 333 332 331 329 328 328 327 327 326 325 325 324 323 322 321 321 320 319 318 317 316 315 315 316 318 319 319 319 318 317 316 317 318
305 306 307 308 310 310 311 312 313 313 314 315 317 319 321 323 325 326 327 328 330 332 335 337 339 341 342 343 343 342 342 341 341 342 343 344 344 344 344 344 345 345 345 345 345 345 345 344 343 341 338 336 334 332 330 329 328 328 328 327 327 326 325 325 324 323 322 321 320 318 317 315 314 313 313 314 315 317 318 319 318 318 317 316 315 316
Height
5709 5708 5708 5707 5707 5706 5704 5704 5704 5703 5701 5700 5699 5698 5697 5696 5694 5693 5692 5690 5689 5687 5686 5684 5682 5681 5679 5677 5675 5674 5673 5671 5669 5668 5666 5664 5663 5661 5659 5658 5656 5654 5653 5651 5650 5648 5646 5645 5643 5642 5640 5639 5637 5636 5634 5633 5632 5630 5629 5628 5627 5626 5624 5623 5622 5621 5620 5619 5618 5617 5616 5615 5615 5614 5614 5613 5612 5611 5610 5609 5609 5608 5608 5608 5608 5608
5705 5704 5704 5703 5703 5702 5700 5699 5699 5698 5697 5695 5694 5694 5692 5691 5689 5688 5687 5685 5684 5682 5680 5679 5677 5675 5673 5671 5670 5668 5666 5665 5663 5661 5660 5658 5656 5654 5653 5651 5649 5647 5646 5644 5642 5640 5639 5637 5636 5634 5633 5631 5630 5629 5627 5626 5625 5624 5622 5621 5620 5619 5618 5617 5615 5614 5613 5612 5611 5610 5609 5609 5608 5607 5607 5606 5605 5605 5604 5603 5603 5602 5601 5601 5600 5600
5701 5700 5699 5699 5698 5697 5696 5694 5694 5693 5692 5691 5690 5689 5688 5687 5685 5683 5682 5680 5679 5677 5675 5674 5672 5669 5667 5665 5664 5662 5660 5659 5657 5655 5653 5651 5649 5648 5646 5644 5642 5640 5639 5637 5635 5633 5632 5630 5629 5627 5626 5624 5623 5622 5621 5619 5618 5617 5616 5615 5614 5612 5611 5610 5609 5608 5607 5605 5604 5604 5603 5602 5601 5600 5599 5599 5598 5598 5597 5596 5595 5595 5594 5594 5593 5593
5697 5696 5695 5694 5694 5692 5691 5690 5689 5688 5687 5686 5685 5684 5683 5682 5680 5679 5677 5676 5674 5672 5670 5668 5666 5664 5662 5659 5658 5656 5654 5652 5650 5648 5646 5644 5643 5640 5639 5637 5635 5633 5631 5630 5628 5626 5625 5623 5622 5621 5619 5618 5617 5615 5614 5613 5612 5611 5609 5608 5607 5606 5604 5603 5602 5601 5600 5599 5597 5596 5595 5594 5594 5593 5592 5591 5591 5590 5589 5589 5588 5587 5587 5586 5585 5585
5693 5692 5690 5690 5689 5688 5686 5685 5684 5683 5682 5681 5680 5679 5678 5676 5675 5674 5672 5670 5669 5667 5664 5663 5661 5659 5656 5654 5652 5650 5648 5646 5644 5642 5640 5638 5636 5634 5632 5630 5628 5626 5625 5623 5622 5620 5619 5617 5616 5614 5613 5612 5610 5609 5608 5607 5605 5604 5603 5602 5600 5599 5598 5596 5595 5594 5593 5591 5590 5589 5588 5587 5586 5585 5584 5584 5583 5582 5582 5581 5580 5579 5579 5578 5578 5577
5689 5688 5686 5685 5684 5683 5682 5680 5679 5678 5677 5676 5675 5674 5672 5671 5669 5668 5667 5665 5663 5661 5659 5657 5655 5653 5651 5649 5646 5644 5643 5641 5638 5636 5634 5632 5629 5627 5625 5624 5622 5620 5619 5617 5615 5614 5613 5611 5610 5609 5607 5605 5604 5603 5601 5600 5599 5597 5596 5595 5594 5592 5591 5589 5588 5587 5585 5584 5583 5581 5580 5579 5578 5577 5576 5575 5574 5574 5573 5573 5572 5571 5571 5570 5569 5569
5684 5683 5682 5680 5679 5678 5677 5676 5674 5673 5672 5671 5669 5669 5667 5666 5664 5663 5661 5659 5658 5656 5654 5652 5650 5648 5646 5643 5641 5639 5637 5635 5633 5631 5629 5626 5624 5622 5619 5618 5616 5614 5613 5611 5609 5608 5606 5605 5604 5602 5600 5599 5597 5596 5594 5593 5591 5590 5589 5588 5586 5585 5584 5582 5581 5579 5578 5577 5575 5574 5572 5571 5570 5569 5568 5567 5566 5565 5565 5564 5564 5563 5562 5562 5561 5561
5679 5678 5677 5676 5675 5673 5672 5671 5669 5669 5668 5666 5665 5664 5662 5661 5659 5658 5656 5654 5652 5651 5649 5647 5644 5642 5640 5637 5635 5633 5631 5629 5628 5625 5623 5621 5619 5617 5614 5612 5610 5608 5606 5604 5603 5601 5599 5598 5596 5594 5593 5591 5589 5588 5586 5585 5584 5582 5581 5580 5579 5577 5576 5575 5573 5572 5570 5569 5568 5566 5564 5563 5562 5561 5559 5559 5558 5557 5556 5555 5555 5554 5554 5553 5553 5552
5674 5673 5672 5672 5671 5669 5667 5666 5664 5664 5663 5661 5660 5659 5658 5656 5654 5653 5651 5649 5647 5645 5644 5642 5639 5636 5633 5631 5629 5627 5625 5623 5622 5620 5618 5615 5613 5611 5609 5607 5605 5602 5600 5598 5596 5594 5592 5590 5588 5587 5585 5583 5581 5580 5578 5577 5575 5574 5573 5572 5570 5569 5568 5567 5566 5564 5563 5561 5560 5558 5557 5555 5554 5552 5551 5550 5549 5548 5547 5547 5546 5545 5545 5544 5544 5543
5670 5669 5668 5666 5666 5665 5664 5661 5659 5659 5658 5657 5655 5654 5653 5651 5649 5647 5645 5644 5641 5639 5637 5636 5633 5630 5627 5624 5622 5621 5619 5617 5615 5614 5612 5610 5608 5605 5603 5601 5599 5596 5594 5591 5589 5586 5584 5582 5580 5578 5576 5574 5573 5571 5569 5568 5567 5565 5564 5563 5562 5561 5560 5559 5557 5556 5555 5553 5552 5550 5549 5547 5546 5544 5543 5542 5541 5540 5539 5538 5537 5537 5536 5535 5535 5534
5666 5665 5664 5662 5660 5660 5659 5657 5655 5654 5653 5651 5649 5648 5647 5646 5644 5642 5640 5638 5635 5633 5631 5629 5627 5624 5622 5618 5616 5614 5613 5612 5610 5608 5606 5604 5601 5599 5597 5595 5592 5590 5587 5584 5581 5579 5576 5574 5572 5570 5568 5566 5564 5563 5561 5559 5558 5557 5556 5554 5553 5552 5551 5550 5549 5548 5546 5545 5544 5542 5541 5539 5538 5537 5535 5534 5533 5531 5530 5530 5529 5528 5528 5527 5526 5526
5661 5660 5659 5657 5656 5654 5654 5652 5650 5649 5648 5646 5644 5642 5640 5639 5638 5637 5635 5632 5629 5628 5626 5623 5620 5617 5615 5613 5610 5609 5607 5606 5604 5602 5600 5597 5595 5592 5590 5588 5586 5583 5581 5578 5575 5572 5570 5568 5565 5563 5561 5559 5557 5555 5553 5552 5550 5549 5547 5546 5545 5544 5543 5541 5540 5539 5538 5537 5535 5534 5533 5532 5531 5529 5528 5526 5525 5524 5523 5522 5521 5520 5519 5519 5518 5518
5656 5655 5654 5652 5651 5649 5649 5647 5645 5644 5643 5641 5639 5637 5635 5633 5631 5630 5629 5626 5624 5622 5620 5618 5614 5611 5608 5606 5604 5603 5602 5601 5599 5597 5594 5591 5588 5586 5584 5582 5580 5577 5574 5572 5569 5566 5564 5562 5559 5557 5554 5552 5550 5548 5546 5544 5543 5541 5540 5539 5537 5536 5534 5533 5532 5531 5529 5529 5527 5526 5525 5524 5523 5522 5520 5519 5518 5516 5515 5514 5513 5512 5511 5510 5510 5509
5651 5650 5649 5648 5646 5644 5643 5642 5640 5639 5637 5635 5634 5632 5630 5628 5626 5624 5623 5620 5618 5616 5615 5613 5610 5606 5603 5600 5598 5597 5597 5595 5594 5592 5589 5586 5582 5580 5578 5576 5574 5571 5569 5566 5563 5560 5558 5556 5554 5551 5548 5546 5544 5542 5539 5538 5536 5534 5533 5531 5530 5529 5527 5526 5524 5523 5522 5521 5519 5519 5517 5516 5515 5514 5513 5512 5510 5509 5508 5507 5505 5504 5503 5502 5502 5501
5647 5646 5644 5642 5641 5639 5638 5637 5635 5633 5631 5630 5629 5627 5624 5622 5620 5619 5617 5615 5612 5610 5609 5608 5605 5601 5598 5594 5592 5591 5591 5590 5589 5587 5584 5580 5576 5574 5573 5571 5568 5565 5563 5560 5557 5554 5551 5550 5548 5545 5542 5540 5538 5535 5533 5531 5529 5528 5526 5525 5523 5522 5520 5519 5517 5516 5515 5514 5512 5511 5510 5509 5507 5506 5505 5504 5503 5502 5500 5499 5498 5497 5495 5494 5494 5493
5642 5641 5639 5638 5636 5634 5633 5632 5630 5629 5626 5625 5623 5621 5619 5617 5614 5613 5611 5609 5607 5605 5604 5602 5599 5596 5593 5589 5586 5585 5585 5584 5582 5581 5579 5575 5571 5567 5566 5565 5563 5559 5557 5554 5551 5548 5546 5544 5541 5539 5536 5533 5531 5529 5527 5525 5523 5521 5519 5518 5516 5515 5514 5512 5510 5509 5508 5506 5505 5504 5502 5501 5499 5498 5497 5496 5494 5493 5492 5491 5490 5489 5487 5486 5485 5484
5637 5636 5634 5633 5631 5629 5627 5626 5625 5624 5622 5620 5618 5616 5614 5612 5609 5607 5606 5604 5602 5600 5598 5596 5594 5592 5588 5584 5580 5578 5579 5579 5577 5575 5573 5570 5566 5562 5560 5559 5557 5554 5551 5548 5545 5543 5540 5538 5535 5532 5529 5527 5524 5522 5520 5518 5516 5514 5513 5511 5509 5508 5507 5505 5504 5502 5501 5499 5498 5496 5494 5493 5491 5490 5488 5487 5486 5484 5484 5482 5481 5480 5479 5478 5477 5476
5632 5631 5630 5628 5626 5624 5623 5621 5620 5618 5617 5615 5613 5610 5608 5606 5604 5602 5600 5598 5596 5594 5592 5590 5588 5586 5583 5579 5575 5572 5572 5573 5571 5569 5568 5565 5561 5557 5554 5553 5551 5548 5545 5542 5539 5537 5534 5532 5529 5526 5523 5521 5518 5516 5514 5511 5509 5508 5506 5504 5503 5501 5499 5498 5497 5495 5494 5492 5490 5488 5486 5485 5483 5481 5480 5478 5477 5475 5474 5473 5472 5470 5469 5468 5467 5466
5627 5626 5625 5624 5621 5619 5618 5616 5614 5613 5611 5609 5608 5606 5603 5601 5599 5597 5595 5593 5591 5589 5587 5584 5582 5579 5577 5574 5570 5567 5566 5566 5565 5564 5562 5560 5556 5551 5549 5547 5545 5542 5539 5536 5534 5531 5529 5526 5523 5520 5517 5514 5512 5509 5507 5505 5503 5501 5499 5497 5496 5494 5492 5491 5489 5488 5486 5484 5482 5480 5478 5476 5474 5473 5471 5469 5468 5466 5464 5463 5462 5460 5459 5458 5457 5457
5622 5621 5620 5619 5617 5615 5613 5611 5609 5608 5606 5604 5602 5600 5598 5596 5594 5592 5589 5588 5586 5584 5581 5579 5576 5574 5571 5569 5565 5562 5560 5560 5560 5558 5556 5554 5551 5546 5543 5541 5539 5537 5534 5530 5528 5525 5523 5520 5517 5514 5511 5509 5506 5504 5501 5499 5497 5494 5493 5491 5489 5487 5485 5484 5482 5480 5478 5476 5474 5472 5470 5468 5466 5464 5462 5460 5458 5456 5454 5453 5451 5450 5449 5448 5447 5446
5618 5616 5614 5614 5613 5611 5608 5605 5604 5602 5601 5599 5597 5595 5593 5591 5589 5587 5584 5582 5580 5578 5576 5574 5571 5568 5565 5563 5559 5556 5554 5554 5554 5553 5551 5549 5545 5541 5537 5536 5534 5531 5529 5525 5522 5520 5518 5514 5511 5508 5506 5503 5500 5498 5495 5493 5490 5488 5486 5484 5482 5480 5478 5476 5474 5472 5470 5468 5465 5463 5461 5459 5457 5454 5452 5450 5448 5446 5444 5443 5441 5439 5438 5437 5436 5436
5613 5611 5609 5608 5607 5606 5603 5601 5599 5597 5595 5594 5592 5590 5588 5586 5584 5581 5579 5577 5575 5573 5570 5568 5565 5562 5560 5557 5554 5550 5549 5548 5548 5547 5545 5544 5540 5536 5532 5530 5529 5526 5523 5520 5517 5515 5512 5509 5506 5503 5500 5498 5495 5492 5489 5487 5484 5482 5479 5477 5475 5473 5470 5468 5466 5464 5461 5459 5457 5454 5452 5450 5447 5445 5443 5440 5438 5436 5434 5433 5431 5430 5429 5428 5427 5426
5609 5606 5604 5603 5602 5600 5598 5596 5594 5592 5590 5589 5587 5585 5583 5581 5579 5576 5574 5572 5570 5568 5565 5563 5560 5557 5554 5551 5548 5545 5543 5542 5541 5540 5539 5538 5535 5531 5527 5525 5523 5521 5518 5515 5513 5510 5507 5504 5501 5498 5495 5492 5489 5486 5483 5480 5478 5475 5473 5470 5468 5465 5463 5460 5458 5456 5453 5451 5448 5446 5443 5440 5438 5435 5433 5431 5429 5427 5425 5424 5422 5421 5419 5419 5418 5417
5604 5602 5599 5598 5596 5595 5593 5591 5589 5587 5585 5584 5582 5579 5577 5575 5573 5571 5569 5566 5564 5562 5560 5557 5555 5552 5549 5546 5543 5540 5537 5536 5535 5535 5534 5532 5530 5526 5522 5520 5518 5516 5513 5510 5508 5505 5502 5499 5495 5492 5489 5487 5484 5480 5477 5474 5471 5469 5466 5463 5460 5458 5455 5453 5450 5448 5445 5442 5440 5437 5434 5432 5429 5427 5424 5422 5420 5419 5417 5415 5414 5413 5412 5411 5410 5410
5599 5597 5595 5593 5592 5590 5588 5586 5584 5583 5581 5579 5577 5575 5573 5570 5568 5566 5564 5561 5559 5557 5555 5553 5550 5547 5544 5542 5539 5535 5531 5530 5529 5529 5528 5527 5524 5521 5517 5515 5513 5511 5508 5505 5503 5500 5498 5494 5490 5487 5484 5481 5478 5474 5471 5468 5464 5462 5459 5456 5453 5450 5448 5445 5443 5440 5437 5434 5432 5429 5427 5424 5421 5419 5417 5415 5413 5411 5410 5409 5407 5406 5405 5404 5404 5403
5594 5593 5591 5589 5587 5585 5584 5582 5580 5578 5576 5574 5572 5570 5568 5566 5563 5561 5559 5556 5554 5553 5550 5548 5545 5543 5540 5538 5534 5530 5527 5525 5524 5524 5523 5522 5519 5516 5512 5510 5508 5507 5504 5501 5498 5495 5493 5489 5485 5481 5479 5475 5472 5468 5465 5461 5458 5455 5452 5449 5446 5443 5440 5438 5435 5433 5430 5427 5425 5422 5419 5417 5415 5413 5410 5409 5407 5405 5404 5403 5402 5401 5400 5399 5399 5398
5590 5588 5587 5585 5583 5581 5579 5577 5575 5573 5571 5569 5568 5566 5564 5561 5559 5557 5554 5552 5550 5548 5546 5543 5541 5538 5535 5533 5530 5526 5523 5520 5519 5518 5518 5516 5514 5511 5508 5505 5503 5501 5499 5496 5494 5490 5488 5484 5479 5476 5473 5470 5466 5462 5459 5455 5452 5449 5445 5442 5439 5436 5434 5431 5429 5426 5424 5421 5418 5416 5414 5411 5409 5407 5405 5404 5402 5400 5399 5398 5397 5396 5395 5394 5394 5393
5586 5584 5582 5580 5578 5576 5574 5573 5570 5569 5567 5565 5563 5561 5559 5557 5554 5552 5549 5547 5545 5543 5541 5538 5536 5534 5531 5529 5525 5522 5518 5516 5514 5513 5513 5512 5509 5506 5503 5500 5498 5496 5494 5492 5489 5486 5482 5478 5474 5471 5468 5464 5460 5457 5453 5449 5446 5443 5439 5436 5433 5430 5427 5424 5422 5419 5417 5415 5413 5410 5408 5406 5404 5402 5401 5399 5398 5396 5395 5394 5393 5392 5391 5390 5389 5389
5581 5579 5578 5576 5574 5572 5570 5568 5566 5564 5562 5560 5558 5556 5554 5552 5550 5548 5545 5543 5541 5539 5536 5533 5531 5529 5527 5524 5521 5518 5514 5511 5509 5509 5508 5507 5504 5501 5498 5496 5493 5490 5489 5487 5485 5482 5478 5473 5469 5466 5463 5459 5455 5451 5447 5444 5440 5437 5434 5430 5427 5424 5421 5418 5416 5414 5411 5409 5407 5405 5403 5401 5400 5398 5396 5395 5394 5392 5391 5390 5389 5388 5387 5386 5385 5384
5577 5575 5573 5571 5569 5568 5565 5563 5561 5559 5557 5555 5554 5551 5549 5547 5545 5543 5540 5538 5536 5534 5531 5529 5526 5524 5522 5519 5517 5514 5509 5506 5505 5504 5504 5502 5499 5496 5494 5491 5488 5485 5483 5482 5480 5477 5474 5469 5464 5460 5457 5454 5450 5446 5442 5438 5435 5431 5428 5425 5421 5418 5415 5412 5410 5408 5405 5404 5402 5400 5398 5396 5395 5394 5392 5391 5389 5388 5387 5386 5384 5384 5383 5382 5381 5381
5572 5570 5569 5567 5565 5563 5561 5559 5557 5555 5553 5551 5549 5547 5544 5543 5540 5538 5536 5533 5531 5529 5527 5524 5521 5519 5517 5515 5513 5509 5505 5502 5500 5499 5499 5498 5495 5492 5490 5487 5483 5479 5477 5476 5474 5472 5469 5465 5460 5456 5452 5449 5444 5440 5437 5433 5430 5427 5423 5420 5417 5413 5410 5408 5405 5403 5401 5399 5397 5395 5393 5392 5390 5389 5388 5387 5385 5384 5383 5381 5380 5379 5379 5378 5377 5376
5568 5566 5564 5562 5560 5559 5557 5555 5553 5551 5549 5547 5544 5542 5540 5538 5536 5533 5531 5529 5526 5524 5522 5520 5517 5515 5512 5510 5508 5505 5502 5499 5496 5495 5494 5493 5490 5487 5485 5483 5479 5475 5472 5470 5468 5466 5463 5460 5456 5451 5447 5444 5439 5436 5432 5428 5425 5422 5419 5416 5413 5410 5407 5404 5402 5400 5398 5396 5394 5392 5390 5389 5387 5385 5384 5383 5381 5380 5379 5377 5376 5375 5374 5373 5373 5372
5563 5562 5560 5558 5556 5554 5552 5550 5549 5547 5544 5542 5540 5538 5536 5534 5531 5529 5527 5524 5522 5520 5518 5516 5513 5511 5508 5506 5504 5501 5498 5495 5493 5491 5490 5489 5486 5484 5481 5478 5475 5471 5468 5464 5462 5459 5457 5454 5450 5447 5443 5439 5435 5431 5427 5424 5421 5418 5415 5413 5410 5407 5404 5402 5400 5398 5396 5394 5392 5390 5388 5386 5384 5383 5381 5380 5378 5377 5375 5374 5372 5371 5369 5369 5368 5367
5559 5558 5556 5554 5552 5550 5548 5546 5544 5542 5540 5538 5536 5534 5531 5529 5527 5524 5522 5520 5518 5516 5514 5512 5510 5507 5505 5503 5500 5497 5494 5491 5489 5487 5486 5484 5482 5479 5477 5474 5470 5467 5464 5460 5456 5453 5450 5447 5444 5441 5438 5434 5430 5427 5424 5420 5417 5414 5411 5409 5407 5404 5402 5400 5398 5396 5394 5392 5389 5388 5385 5384 5382 5380 5378 5377 5375 5374 5372 5371 5369 5367 5365 5364 5363 5362
5555 5554 5552 5550 5548 5546 5544 5542 5540 5538 5536 5534 5532 5530 5527 5525 5523 5521 5519 5516 5514 5512 5510 5508 5506 5504 5502 5499 5497 5494 5491 5488 5485 5483 5481 5479 5477 5475 5472 5469 5466 5462 5459 5455 5451 5448 5445 5441 5438 5435 5433 5430 5426 5423 5419 5417 5414 5411 5408 5406 5404 5402 5399 5397 5395 5393 5391 5389 5387 5384 5382 5380 5379 5377 5375 5374 5372 5370 5369 5367 5365 5364 5362 5360 5359 5357
5551 5549 5548 5546 5544 5542 5540 5538 5536 5534 5532 5530 5528 5526 5524 5522 5519 5517 5515 5513 5511 5509 5507 5504 5502 5500 5498 5495 5493 5491 5488 5484 5481 5479 5477 5474 5473 5470 5468 5464 5460 5457 5454 5449 5445 5443 5439 5436 5432 5429 5427 5425 5422 5419 5416 5413 5410 5408 5405 5403 5400 5398 5396 5394 5392 5390 5388 5386 5384 5381 5379 5377 5375 5373 5372 5370 5369 5367 5365 5364 5362 5360 5358 5356 5354 5353
5547 5545 5544 5542 5540 5538 5536 5534 5532 5530 5528 5526 5524 5522 5520 5518 5516 5514 5512 5510 5508 5506 5504 5501 5499 5496 5494 5491 5489 5487 5484 5481 5478 5475 5473 5470 5468 5465 5463 5459 5455 5451 5448 5444 5440 5436 5433 5430 5427 5424 5422 5419 5417 5415 5413 5410 5407 5405 5402 5400 5398 5395 5393 5390 5389 5386 5384 5382 5380 5378 5376 5374 5371 5370 5368 5366 5365 5363 5362 5360 5358 5356 5354 5353 5351 5349
5543 5541 5539 5538 5536 5534 5532 5530 5528 5526 5524 5523 5521 5519 5517 5515 5513 5511 5509 5507 5505 5503 5501 5498 5495 5493 5490 5487 5485 5483 5480 5477 5474 5471 5468 5465 5463 5460 5458 5454 5449 5445 5442 5438 5434 5430 5427 5424 5422 5419 5417 5414 5412 5410 5409 5406 5404 5401 5399 5397 5395 5393 5390 5387 5385 5383 5381 5379 5376 5374 5372 5370 5368 5366 5364 5363 5361 5360 5358 5356 5354 5353 5350 5349 5347 5345
5539 5537 5536 5534 5532 5530 5529 5527 5525 5523 5521 5520 5518 5516 5514 5512 5510 5508 5506 5504 5502 5500 5498 5495 5493 5490 5487 5484 5481 5479 5476 5473 5470 5467 5464 5461 5458 5455 5452 5448 5444 5439 5435 5432 5428 5425 5421 5418 5416 5414 5412 5410 5408 5406 5404 5402 5400 5398 5396 5394 5392 5390 5387 5384 5382 5379 5377 5375 5373 5371 5369 5367 5365 5363 5361 5359 5358 5356 5354 5353 5351 5349 5347 5345 5343 5341
5535 5534 5532 5530 5529 5527 5525 5524 5522 5520 5519 5517 5515 5514 5512 5510 5508 5505 5503 5501 5499 5497 5495 5493 5490 5487 5484 5480 5478 5475 5472 5469 5466 5463 5459 5456 5453 5449 5446 5442 5438 5434 5430 5426 5423 5419 5416 5413 5411 5409 5407 5405 5404 5402 5400 5399 5396 5394 5392 5390 5389 5387 5384 5382 5379 5376 5374 5371 5369 5367 5365 5364 5362 5360 5358 5356 5355 5353 5351 5349 5347 5346 5344 5341 5339 5337
5532 5530 5529 5527 5525 5524 5522 5521 5519 5517 5516 5514 5512 5511 5509 5507 5505 5503 5501 5499 5496 5494 5492 5490 5487 5484 5480 5477 5474 5471 5468 5464 5461 5458 5455 5451 5447 5444 5440 5436 5433 5429 5425 5422 5418 5415 5412 5409 5407 5404 5403 5401 5400 5398 5397 5395 5393 5390 5388 5386 5385 5384 5382 5379 5376 5373 5370 5368 5366 5364 5362 5360 5359 5357 5355 5354 5352 5350 5348 5346 5344 5342 5340 5338 5336 5334
5529 5527 5526 5524 5523 5521 5519 5518 5516 5514 5513 5511 5510 5508 5506 5505 5503 5501 5499 5496 5494 5491 5489 5487 5484 5481 5478 5474 5470 5467 5464 5460 5457 5454 5450 5446 5442 5439 5435 5431 5428 5424 5421 5418 5415 5412 5409 5407 5404 5402 5400 5398 5396 5395 5393 5391 5389 5387 5385 5383 5381 5379 5378 5376 5373 5370 5367 5365 5363 5361 5359 5358 5356 5354 5353 5351 5349 5347 5344 5343 5340 5338 5336 5334 5332 5330
5526 5524 5523 5521 5519 5518 5516 5515 5513 5512 5510 5509 5507 5505 5504 5502 5500 5498 5496 5494 5492 5489 5487 5484 5482 5479 5476 5472 5468 5464 5460 5456 5453 5449 5445 5442 5438 5434 5431 5428 5424 5421 5419 5416 5413 5410 5408 5405 5403 5400 5398 5396 5394 5392 5390 5388 5386 5384 5382 5380 5378 5375 5374 5373 5370 5368 5365 5363 5360 5359 5357 5355 5353 5351 5349 5348 5345 5343 5341 5339 5337 5334 5332 5329 5327 5325
5523 5521 5520 5519 5517 5515 5514 5512 5511 5509 5508 5506 5504 5503 5501 5499 5498 5496 5494 5491 5489 5487 5484 5481 5479 5476 5473 5470 5466 5462 5458 5453 5449 5446 5442 5439 5435 5432 5429 5425 5422 5419 5417 5414 5412 5409 5406 5404 5401 5399 5396 5394 5392 5389 5387 5385 5384 5382 5379 5377 5375 5373 5370 5369 5367 5365 5363 5361 5358 5356 5354 5351 5349 5348 5346 5344 5342 5339 5337 5334 5332 5330 5327 5325 5322 5320
5520 5519 5517 5516 5514 5513 5511 5510 5508 5507 5505 5504 5502 5500 5499 5497 5495 5493 5491 5489 5486 5484 5481 5479 5476 5474 5470 5467 5464 5460 5456 5451 5447 5444 5440 5437 5434 5430 5428 5424 5422 5419 5416 5413 5411 5408 5406 5403 5400 5398 5395 5393 5390 5388 5385 5383 5381 5379 5377 5375 5372 5370 5368 5366 5364 5362 5360 5358 5356 5353 5351 5348 5346 5344 5342 5340 5338 5336 5333 5331 5328 5326 5323 5321 5318 5315
5517 5516 5515 5513 5512 5510 5509 5507 5506 5504 5503 5501 5499 5498 5496 5494 5492 5490 5488 5486 5484 5481 5479 5476 5474 5471 5467 5464 5461 5458 5454 5450 5446 5443 5439 5436 5433 5430 5427 5424 5421 5419 5415 5413 5410 5407 5405 5402 5400 5397 5394 5391 5389 5386 5384 5381 5378 5376 5374 5372 5370 5368 5365 5363 5361 5359 5356 5354 5352 5350 5348 5345 5343 5340 5339 5336 5334 5333 5330 5328 5325 5323 5320 5317 5314 5311
5515 5514 5512 5511 5509 5508 5507 5505 5504 5502 5500 5499 5497 5495 5494 5492 5490 5488 5485 5484 5481 5479 5476 5474 5471 5468 5465 5462 5459 5455 5452 5449 5446 5443 5439 5436 5433 5430 5427 5424 5421 5418 5415 5413 5410 5407 5404 5401 5399 5396 5393 5390 5387 5384 5382 5379 5376 5374 5372 5370 5368 5365 5363 5361 5359 5356 5353 5351 5349 5347 5344 5342 5340 5338 5335 5334 5332 5330 5328 5326 5323 5320 5317 5314 5311 5308
5512 5511 5510 5509 5507 5506 5504 5503 5501 5499 5498 5496 5494 5493 5491 5489 5488 5485 5483 5481 5479 5477 5474 5472 5469 5465 5462 5459 5456 5454 5451 5448 5445 5442 5439 5436 5433 5430 5427 5424 5421 5418 5415 5412 5409 5406 5404 5400 5398 5394 5391 5388 5385 5382 5380 5378 5375 5372 5369 5367 5365 5363 5361 5359 5356 5354 5351 5349 5346 5344 5341 5339 5337 5334 5333 5331 5329 5328 5326 5324 5321 5318 5314 5311 5308 5305
5510 5509 5508 5506 5505 5504 5502 5500 5499 5498 5496 5494 5492 5490 5489 5487 5485 5483 5481 5479 5477 5474 5472 5469 5467 5464 5460 5457 5454 5452 5449 5446 5444 5441 5439 5436 5433 5430 5427 5424 5421 5418 5415 5412 5409 5406 5403 5400 5397 5394 5390 5387 5384 5381 5378 5376 5374 5371 5368 5366 5363 5361 5358 5356 5354 5352 5349 5346 5344 5342 5339 5337 5335 5333 5330 5328 5327 5325 5324 5322 5319 5315 5312 5308 5305 5302
5508 5506 5505 5504 5503 5501 5500 5498 5497 5495 5494 5492 5490 5489 5487 5484 5483 5481 5479 5477 5474 5472 5470 5467 5464 5462 5459 5456 5453 5450 5448 5445 5443 5440 5438 5435 5432 5429 5426 5423 5420 5418 5414 5411 5409 5405 5402 5399 5396 5393 5389 5386 5382 5379 5377 5374 5372 5369 5367 5364 5362 5359 5356 5354 5352 5349 5347 5344 5342 5339 5337 5335 5332 5330 5329 5326 5324 5323 5321 5319 5316 5313 5309 5305 5302 5299
5505 5504 5503 5502 5500 5499 5497 5496 5494 5493 5492 5490 5488 5487 5485 5483 5481 5479 5477 5475 5473 5470 5468 5465 5463 5460 5457 5454 5452 5449 5446 5444 5441 5439 5436 5434 5431 5428 5425 5422 5419 5416 5413 5410 5407 5404 5401 5399 5396 5393 5389 5385 5381 5378 5374 5372 5369 5367 5365 5363 5360 5357 5354 5352 5349 5347 5345 5342 5339 5337 5334 5332 5330 5328 5326 5323 5321 5319 5317 5315 5313 5309 5306 5302 5298 5295